User: anonymous   Login
Location: Poughquag
(41.6090°N, 73.6820°W)
Time: 19:04:09
(UTC-04:00)
Language:

AIST 2D - Orbit

View from above orbital plane
View from above orbital plane
View from above satellite
View from above satellite

Ground track
Ground track

The orbit data is extracted from the following two-line orbital elements,

1 41465U 16026B   20304.77629527  .00002522  00000-0  76136-4 0  9997
2 41465  97.1319 190.4679 0012825 116.3118 329.0032 15.35093221252185
Epoch (UTC): 30 October 2020 18:37:51
Eccentricity: 0.0012825
inclination: 97.1319°
perigee height: 452 km
apogee height: 469 km
right ascension of ascending node: 190.4679°
argument of perigee: 116.3118°
revolutions per day: 15.35093221
mean anomaly at epoch: 329.0032°
orbit number at epoch: 25218

The dashed part of the orbit path shows where the satellite is in the earth's shadow,  

DLR